Torna al catalogo

STARLINK-34237

AttivoComunicazioniVLEO
NORAD 64194·PAYLOAD·🇺🇸 United States

Lanciato May 28, 2025 da Cape Canaveral Space Force Station

Loading…

Prossimi Passaggi (prossime 24 ore)

TLE

AggiornatoSource: CelesTrak SupGP

Epoca: Sep 14, 2026, 20:43 UTC

1 64194C 25113AA  26257.86368056  .00009727  00000+0  31289-3 0  2577
2 64194  53.1589 290.8447 0001196  74.2767 187.2092 15.31688685    12

Traccia STARLINK-34237 in tempo reale con AllMySat

Download on the App Store